Location: Arcizans
(42.9833°N, 0.1000°W)
Time: 10:37:38
(UTC+00:00)

Daily predictions for brighter satellites

Satellite Brightness Start Highest point End
(mag) Time Altitude Azimuth Time Altitude Azimuth Time Altitude Azimuth
USA 102 4.4 17:34:22 10° S 17:37:09 66° WSW 17:42:50 10° NNW
ATLAS CENTAUR R/B 1.9 17:35:01 10° NNW 17:38:40 32° NE 17:42:05 10° ESE
Cosmos 2218 Rocket 4.3 17:32:52 10° SSE 17:38:56 50° E 17:45:05 10° NNE
SL-8 R/B 4.1 17:41:25 10° W 17:46:11 58° NNW 17:50:52 10° ENE
Shenzhou-11 Module 1.6 17:44:02 10° W 17:46:45 89° SSE 17:49:17 11° E
Cosmos 2251 Rocket 3.6 17:45:45 10° NNW 17:50:59 55° ENE 17:56:12 10° SE
Cosmos 1825 Rocket 3.8 17:49:50 10° SSW 17:54:09 71° W 17:58:29 10° N
Cosmos 1703 3.3 17:50:19 10° S 17:54:12 58° E 17:58:07 10° NNE
USA 116 4.5 17:53:21 10° NE 17:55:47 20° E 17:58:12 10° SSE
Envisat 3.2 17:54:50 10° S 17:59:54 78° WSW 18:05:01 10° NNW
CSL-04 Rocket 4.1 17:55:23 10° SE 18:00:30 41° ENE 18:05:40 10° N
Cosmos 1356 Rocket 3.7 17:58:21 10° N 18:02:13 41° ENE 18:06:08 10° SSE
Cosmos 1455 2.2 18:00:09 10° N 18:03:57 84° W 18:07:43 10° S
Cosmos 2221 3.5 18:01:14 10° NNE 18:04:48 25° ENE 18:08:21 10° SE
Cosmos 2237 Rocket 4.1 17:59:55 10° NW 18:04:55 34° WSW 18:09:56 10° SSW
Cosmos 2366 rocket 4.0 17:59:33 10° S 18:05:45 76° E 18:12:03 10° N
USA 267 3.8 18:04:16 10° NE 18:10:34 52° NNW 18:16:51 10° WSW
Cosmos-2242 3.8 18:07:10 10° NNW 18:11:22 56° W 18:15:32 10° S
CZ-4 R/B 4.3 18:12:11 10° SSE 18:16:18 80° ENE 18:20:26 10° N
ISS -2.0 18:14:41 10° WNW 18:17:29 23° NNW 18:19:21 15° NNE
Okean-O 3.3 18:13:10 10° S 18:17:32 59° W 18:21:55 10° NNW
CENTAUR R/B 4.2 18:18:34 10° ESE 18:19:01 11° ESE 18:19:01 11° ESE
CZ-2D R/B 3.5 18:17:07 10° SE 18:20:45 43° ENE 18:24:26 10° N
SKYMED 2 3.7 18:17:16 10° N 18:21:37 78° WNW 18:25:57 10° SSW
Cosmos 407 Rocket 4.3 18:17:33 10° N 18:22:06 28° ENE 18:24:47 19° ESE
Meteor 2-10 Rocket 4.1 18:19:23 10° NNW 18:24:31 60° W 18:29:28 10° S
Cosmos 1939 Rocket 3.0 18:21:23 10° SSE 18:25:11 49° ENE 18:29:04 10° N
NOSS 3-2 (A) 4.2 18:21:19 10° SSE 18:26:03 28° ESE 18:28:18 22° ENE
DELTA 2 R/B (1) 4.4 18:22:42 10° W 18:28:04 48° SSW 18:32:47 13° SE
SL-16 R/B 2.9 18:25:43 10° NNW 18:31:16 57° WSW 18:36:47 10° S
YAOGAN 1 2.5 18:29:58 10° SSE 18:34:18 86° ENE 18:38:39 10° NNW
Cosmos 2227 4.4 18:29:26 10° S 18:34:58 52° ESE 18:39:03 18° NE
Cosmos 1727 Rocket 4.0 18:31:19 10° N 18:37:31 88° W 18:43:41 10° S
Akebono 4.4 18:36:13 10° NNW 18:40:01 84° ENE 18:41:07 32° SSE
Cosmos 2058 4.1 18:37:06 10° SSE 18:39:19 24° SE 18:39:19 24° SE
Cosmos 2297 Rocket 4.2 18:38:31 10° WSW 18:43:02 24° NW 18:47:35 10° N
Ariane Rocket 3.3 18:38:38 10° SE 18:43:22 42° ENE 18:48:09 10° N
Cosmos 1603 3.7 18:38:53 10° NNW 18:44:27 54° ENE 18:48:56 16° SE
USA 234 3.6 18:37:58 10° SE 18:44:27 67° SW 18:50:58 10° NW
ARGOS 4.5 18:46:24 21° NE 18:46:24 21° NE 18:49:00 10° N
Cosmos 1624 Rocket 4.4 18:42:12 10° S 18:47:05 39° ESE 18:48:10 35° ENE
Cosmos 2263 Rocket 2.3 18:43:19 10° S 18:48:39 50° ESE 18:51:06 30° NE
Atlas Centaur 2 3.8 18:51:29 10° SW 18:54:27 17° S 18:56:42 13° SSE
Meteor 1-27 4.3 18:49:28 10° NNW 18:55:03 79° W 19:00:37 10° S
NOAA 11 4.5 18:50:44 10° S 18:56:13 71° WSW 19:01:42 10° NNW
Cosmos 2227 Rocket 4.4 18:52:20 10° W 18:56:34 21° NW 19:00:50 10° N
ADEOS Rocket 3.3 18:51:12 10° NNE 18:58:05 68° ESE 19:05:35 10° S
Cosmos 614 Rocket 3.9 18:54:58 10° NNW 19:00:10 64° ENE 19:02:55 28° SE
Cosmos 2056 Rocket 3.6 18:57:53 10° S 19:02:58 53° ESE 19:03:46 48° ENE
USA 238 DEB 3.6 18:59:40 10° SSW 19:06:13 64° ESE 19:08:59 37° NE
USA 238 3.6 18:59:48 10° SSW 19:06:20 64° ESE 19:09:02 37° NE
CZ-4 R/B 3.4 19:03:33 10° SSW 19:07:09 30° W 19:10:51 10° NNW
Cosmos 1821 Rocket 4.0 19:06:21 10° S 19:12:43 84° W 19:19:03 10° N
Cosmos 1943 3.0 19:08:21 10° NNW 19:14:01 72° ENE 19:15:43 46° SE
Timation 1 Rocket 4.2 19:11:21 10° SSW 19:17:19 81° ESE 19:19:34 41° NNE
ATLAS CENTAUR R/B 3.6 19:14:19 10° WNW 19:17:23 23° WSW 19:20:19 10° SSW
Cosmos 44 Rocket 4.0 19:16:23 10° SW 19:21:01 48° NW 19:22:39 34° N
Cosmos 1140 Rocket 3.6 19:21:44 10° NNW 19:26:09 59° NNE 19:26:09 59° NNE
SL-8 R/B 4.5 19:24:40 10° WNW 19:28:50 42° NNW 19:28:50 42° NNW
H-2A R/B 3.2 19:36:15 30° N 19:36:15 30° N 19:38:50 10° N
NOSS 3-3 (A) 4.4 19:32:20 10° NW 19:39:53 75° NE 19:41:33 59° ESE
NOSS 3-3 (C) 4.4 19:32:26 10° NNW 19:39:59 74° NE 19:41:35 59° ESE
Cosmos 2123 Rocket 3.9 19:35:01 10° N 19:41:21 86° W 19:47:36 10° S
Cosmos 1934 Rocket 4.0 19:38:06 10° SSW 19:44:10 77° W 19:50:14 10° N
MOS 1 4.4 19:47:43 60° SSW 19:48:43 74° WSW 19:54:26 10° NNW
ATLAS 3B R/B 4.1 19:46:51 10° S 19:49:13 22° S 19:49:13 22° S
NOSS 3-2 (C) 4.0 19:53:12 10° SSW 19:56:59 45° SSW 19:56:59 45° SSW
CENTAUR R/B 3.7 20:03:42 10° SSW 20:06:17 29° SSW 20:06:17 29° SSW
NOSS 3-2 (A) 4.1 20:10:48 10° WSW 20:15:45 50° WNW 20:15:45 50° WNW
Cosmos 2263 Rocket 4.0 20:28:14 10° WSW 20:32:51 26° NW 20:32:52 26° NW
